Location: Agenbach
(47.2667°N, 11.4500°E)
Time: 18:32:04
(UTC+00:00)

STARLINK-1307 - Pass Details

Date: 07 June 2020
Orbit: 548 x 551 km, 53.0° (Epoch: 10 July)

Event Time Altitude Azimuth Distance (km) Brightness Sun altitude
Exits shadow 00:51:52 21° 253° (WSW) 1,250 5.1 -16.5°
Maximum altitude 00:54:31 72° 335° (NNW) 578 3.8 -16.3°
Drops below altitude 10° 00:58:38 10° 60° (ENE) 1,817 7.1 -16.0°
Sets 01:00:52 0° 63° (ENE) 2,710 8.1 -15.9°
